This is the latest recevied weather packets stored in our database for station/object KC0AFB. If no packets are shown the sender has not sent any weather packets the latest 1 day(s).
| Time | Temp. | Humidity | Pressure | Rain* | Wind** | Luminosity | Snow |
|---|---|---|---|---|---|---|---|
| 1778037714 | 1.11° C | 58% | 1016.9 hPa | 0 mm | 0.45 m/s, 21° | 0 W/m² | - |
| 1778037411 | 1.11° C | 58% | 1016.7 hPa | 0 mm | 0.45 m/s, 21° | 0 W/m² | - |
| 1778037108 | 1.67° C | 57% | 1017 hPa | 0 mm | 0.45 m/s, 18° | 0 W/m² | - |
| 1778036807 | 1.67° C | 57% | 1016.7 hPa | 0 mm | 0.45 m/s, 34° | 0 W/m² | - |
| 1778036504 | 1.67° C | 56% | 1016.8 hPa | 0 mm | 0.89 m/s, 14° | 0 W/m² | - |
| 1778036200 | 1.67° C | 56% | 1016.7 hPa | 0 mm | 1.34 m/s, 19° | 0 W/m² | - |
| 1778035896 | 1.67° C | 56% | 1016.6 hPa | 0 mm | 0.89 m/s, 32° | 0 W/m² | - |
| 1778035594 | 2.22° C | 56% | 1016.6 hPa | 0 mm | 0.89 m/s, 12° | 0 W/m² | - |
| 1778035289 | 2.22° C | 56% | 1016.3 hPa | 0 mm | 0.45 m/s, 49° | 0 W/m² | - |
| 1778034986 | 2.22° C | 55% | 1016.6 hPa | 0 mm | 0.45 m/s, 41° | 0 W/m² | - |
| 1778034683 | 2.22° C | 55% | 1016.3 hPa | 0 mm | 0.89 m/s, 21° | 0 W/m² | - |
| 1778034381 | 2.22° C | 55% | 1016.2 hPa | 0 mm | 1.34 m/s, 8° | 0 W/m² | - |
| 1778034079 | 2.22° C | 54% | 1016.4 hPa | 0 mm | 0.89 m/s, 19° | 0 W/m² | - |
| 1778033776 | 2.22° C | 55% | 1016 hPa | 0 mm | 0.89 m/s, 12° | 0 W/m² | - |
| 1778033473 | 2.22° C | 55% | 1016 hPa | 0 mm | 0.89 m/s, 30° | 0 W/m² | - |
| 1778033170 | 2.22° C | 55% | 1016.1 hPa | 0 mm | 1.34 m/s, 30° | 0 W/m² | - |
| 1778032868 | 2.22° C | 55% | 1016.2 hPa | 0 mm | 0.89 m/s, 18° | 1 W/m² | - |
| 1778032565 | 2.22° C | 56% | 1016.2 hPa | 0 mm | 0.89 m/s, 23° | 2 W/m² | - |
| 1778032261 | 2.22° C | 56% | 1016 hPa | 0 mm | 1.34 m/s, 21° | 4 W/m² | - |
| 1778031959 | 2.22° C | 55% | 1015.7 hPa | 0 mm | 0.45 m/s, 28° | 6 W/m² | - |
| 1778031654 | 2.22° C | 55% | 1015.8 hPa | 0 mm | 0.89 m/s, 25° | 11 W/m² | - |
| 1778031353 | 2.78° C | 54% | 1015.8 hPa | 0 mm | 0.45 m/s, 29° | 14 W/m² | - |
| 1778031049 | 2.78° C | 53% | 1015.8 hPa | 0 mm | 1.34 m/s, 0° | 16 W/m² | - |
| 1778030745 | 3.33° C | 53% | 1015.8 hPa | 0 mm | 1.34 m/s, 342° | 18 W/m² | - |
| 1778030442 | 3.89° C | 52% | 1015.8 hPa | 0 mm | 1.34 m/s, 9° | 23 W/m² | - |
* Rain latest hour (hover to see other rain measurements)
** Current wind speed in m/s (hover to see current wind gust speed)